Regional Weather Roundup
Issued by NWS Sterling, VA

Home | Current Version | Previous Version | Text Only | Print | Product List | Glossary Off
Versions: 1 2 3 4 5 6 7 8 9 10 11 12 13 14 15 16 17 18 19 20 21 22 23 24 25 26 27 28 29 30 31 32 33 34 35 36 37 38 39 40 41 42 43 44 45 46 47 48 49 50

000
ASUS41 KLWX 220811
RWRLWX

REGIONAL WEATHER ROUNDUP
NATIONAL WEATHER SERVICE BALTIMORE MD/WASHINGTON DC
300 AM EST THU FEB 22 2018

Note: "FAIR" indicates few or no clouds below 12,000 feet
with no significant weather and/or obstructions to visibility.
 TC=TEMPERATURE CELSIUS

 * =Non NWS site. Station does not report precipitation (e.g. rain,
    snow, etc.), thunder, or fog.

DCZ001-MDZ009-015-VAZ040>042-051-053>054-220900-
WASHINGTON METRO

CITY           SKY/WX    TMP DP  RH WIND       PRES   REMARKS
WASHINGTON NAT CLOUDY    65  56  72 NE13      30.41R
DULLES         CLOUDY    58  52  80 N10       30.42R
ANDREWS AFB    CLOUDY    64  57  80 NE15      30.40R
FT BELVOIR     CLOUDY    65  59  81 CALM      30.39S
QUANTICO       CLOUDY    57  56  96 CALM      30.40R
COLLEGE PARK*  CLOUDY    61  51  69 NE6       30.43R
LEESBURG*      CLOUDY    55  50  82 NE9G16    30.44S
MANASSAS*      CLOUDY    63  56  78 N15       30.40S
GAITHERSBURG*  CLOUDY    55  50  83 NE8       30.43S

$$

MDZ006>007-011-014-220900-
BALTIMORE METRO

CITY           SKY/WX    TMP DP  RH WIND       PRES   REMARKS
BWI AIRPORT    MOCLDY    56  48  74 NE14      30.43R
MD SCIENCE CTR   N/A     57  44  62 MISG      30.43R
MARTIN STATE   CLOUDY    55  43  62 N9        30.47R
ANNAPOLIS      CLOUDY    58  50  75 N14       30.42R
FORT MEADE*    CLOUDY    57  46  67 NE10      30.46R

$$

MDZ012-015-019>023-220900-
MARYLAND EASTERN SHORE

CITY           SKY/WX    TMP DP  RH WIND       PRES   REMARKS
OCEAN CITY     MOCLDY    52  52 100 CALM      30.40S
SALISBURY      MOCLDY    61  60  97 CALM      30.40R
BAY BRIDGE AP* CLOUDY    55  46  71 N10       30.44R
CAMBRIDGE*       N/A     61  61 100 E3        30.40S
EASTON*        MOCLDY    63  58  82 NE15      30.45R

$$

MDZ017>025-220900-
SOUTHERN MARYLAND

CITY           SKY/WX    TMP DP  RH WIND       PRES   REMARKS
PATUXENT RIVER CLOUDY    59  57  93 CALM      30.39R
ST INIGOES     CLOUDY    64  60  87 CALM      30.38S
LEONARDTOWN*   CLOUDY    63  61  94 CALM      30.42R

$$

MDZ003>005-220900-
NORTH CENTRAL MARYLAND

CITY           SKY/WX    TMP DP  RH WIND       PRES   REMARKS
FREDERICK*     CLOUDY    54  41  62 N13       30.48S
HAGERSTOWN APT CLOUDY    52  40  63 N17       30.44S
WESTMINSTER*   CLOUDY    52  46  82 NE9G18    30.45F

$$

MDZ501>502-220900-
WESTERN MARYLAND

CITY           SKY/WX    TMP DP  RH WIND       PRES   REMARKS
OAKLAND*       CLOUDY    43  43 100 E12       30.39F VSB 1/4
CUMBERLAND*    CLOUDY    54  48  82 N3        30.48S

$$

VAZ025>031-220900-
SHENANDOAH VALLEY

CITY           SKY/WX    TMP DP  RH WIND       PRES   REMARKS
WINCHESTER*    DRIZZLE   54  48  82 NE6       30.45S
FRONT ROYAL*   CLOUDY    57  54  88 NE9       30.41S
LURAY*         CLOUDY    61  54  77 N12       30.39F
NEW MARKET*    CLOUDY    60  53  76 N8        30.38S
STAUNTON*      CLOUDY    59  58  99 NE5       30.40F
WAYNESBORO*    MOCLDY    60  60  99 CALM      30.38F

$$

WVZ021-048>050-054>055-220900-
EASTERN WEST VIRGINIA PANHANDLE

CITY           SKY/WX    TMP DP  RH WIND       PRES   REMARKS
MARTINSBURG    CLOUDY    53  49  86 N9        30.44R
PETERSBURG*    DRIZZLE   55  52  90 N5        30.42S

$$

VAZ036>039-050-220900-
CENTRAL FOOTHILLS

CITY           SKY/WX    TMP DP  RH WIND       PRES   REMARKS
CHARLOTTESVILL CLOUDY    65  60  84 NE7       30.38S
CULPEPER*      CLOUDY    64  55  73 N5        30.41S
ORANGE*        CLOUDY    59  59 100 CALM      30.39S
GORDONSVILLE*  CLOUDY    58  58 100 CALM      30.38S
WARRENTON*     CLOUDY    64  54  68 NE7       30.39F

$$

VAZ055>057-220900-
NORTH AND CENTRAL PIEDMONT

CITY           SKY/WX    TMP DP  RH WIND       PRES   REMARKS
FREDERICKSBRG* CLOUDY    63  63 100 CALM      30.38S
STAFFORD*      CLOUDY    66  62  86 N5        30.43S

$$

NCZ024-NYZ072-PAZ021-071-VAZ022-071-220900-
OTHER REGIONAL OBSERVATIONS

CITY           SKY/WX    TMP DP  RH WIND       PRES   REMARKS
NEW YORK CITY  CLOUDY    53  33  46 N12G20    30.51R
PHILADELPHIA   CLOUDY    55  33  43 N13       30.46R
PITTSBURGH     LGT RAIN  42  37  82 N10       30.48F
ROANOKE        FAIR      63  60  90 SE3       30.39F
RICHMOND       FAIR      62  61  96 S5        30.40R
RALEIGH        FAIR      62  61  96 SW8       30.43S

$$

ANZ530>537-220900-
MARINE OBSERVATIONS

STATION/POSITION TIME  TEMP    WIND        PRES
                       AIR SEA DIR/SP/G
                 (UTC) (F)     (DEG/KT/KT) (MB)
THOMAS PT LIGHT  0800   51 41   30/ 16/ 18   N/A
BALT KEY BRIDGE  0748   55      10/ 15/ 16 1031.0R
COVE POINT       0748   56     170/  7/  8 1030.0R
LEWISETTA        0748   65 52  250/  4/  5 1029.0R
SOLOMONS ISLAND  0748      44   80/  2/  2 1029.0R
PINEY POINT      0748             CALM       N/A

$$




USA.gov is the U.S. government's official web portal to all federal, state and local government web resources and services.